Time,TemperatureF,DewpointF,PressureIn,WindDirection,WindDirectionDegrees,WindSpeedMPH,WindSpeedGustMPH,Humidity,HourlyPrecipIn,Conditions,Clouds,dailyrainin,SoftwareType,DateUTC
2013-02-18 01:00:00,31.0,-99.9,-100.00,North,-999,-999.0,-999.0,-999,-99.99,,,0.00,,2013-02-18 08:00:00,
2013-02-18 01:52:00,31.0,-99.9,-100.00,North,-999,-999.0,-999.0,-999,-99.99,,,0.00,,2013-02-18 08:52:00,
2013-02-18 08:00:00,24.0,-99.9,-100.00,North,-999,-999.0,-999.0,-999,-99.99,,,-99.99,,2013-02-18 15:00:00,
2013-02-18 08:53:00,24.0,-99.9,-100.00,North,-999,-999.0,-999.0,-999,-99.99,,,-99.99,,2013-02-18 15:53:00,
2013-02-18 09:00:00,27.0,10.0,-100.00,WNW,285,2.0,6.0,48,-99.99,,,-99.99,,2013-02-18 16:00:00,
2013-02-18 09:53:00,27.0,10.0,-100.00,WNW,285,2.0,6.0,48,-99.99,,,-99.99,,2013-02-18 16:53:00,
2013-02-18 12:00:00,36.0,8.0,-100.00,NW,313,2.0,5.0,31,-99.99,,,-99.99,,2013-02-18 19:00:00,
2013-02-18 13:00:00,40.0,8.0,-100.00,NW,314,1.0,4.0,27,-99.99,,,0.00,,2013-02-18 20:00:00,
2013-02-18 13:53:00,40.0,8.0,-100.00,NW,314,1.0,4.0,27,-99.99,,,0.00,,2013-02-18 20:53:00,
2013-02-18 14:00:00,40.0,2.0,-100.00,WNW,296,2.0,6.0,20,-99.99,,,0.00,,2013-02-18 21:00:00,
2013-02-18 14:53:00,40.0,2.0,-100.00,WNW,296,2.0,6.0,20,-99.99,,,0.00,,2013-02-18 21:53:00,
2013-02-18 15:00:00,36.0,1.0,-100.00,WNW,303,2.0,5.0,22,-99.99,,,0.00,,2013-02-18 22:00:00,
2013-02-18 15:53:00,36.0,1.0,-100.00,WNW,303,2.0,5.0,22,-99.99,,,0.00,,2013-02-18 22:53:00,
2013-02-18 16:00:00,35.0,-1.0,-100.00,West,273,2.0,7.0,21,-99.99,,,0.00,,2013-02-18 23:00:00,
2013-02-18 16:53:00,35.0,-1.0,-100.00,West,273,2.0,7.0,21,-99.99,,,0.00,,2013-02-18 23:53:00,
2013-02-18 17:00:00,32.0,-5.0,-100.00,West,278,2.0,5.0,19,-99.99,,,0.00,,2013-02-19 00:00:00,
2013-02-18 17:55:00,32.0,-5.0,-100.00,West,278,2.0,5.0,19,-99.99,,,0.00,,2013-02-19 00:55:00,
2013-02-18 18:00:00,31.0,-4.0,-100.00,West,269,2.0,6.0,22,-99.99,,,0.00,,2013-02-19 01:00:00,
2013-02-18 18:56:00,31.0,-4.0,-100.00,West,269,2.0,6.0,22,-99.99,,,0.00,,2013-02-19 01:56:00,
2013-02-18 19:00:00,29.0,-5.0,-100.00,West,268,2.0,4.0,22,-99.99,,,-99.99,,2013-02-19 02:00:00,
2013-02-18 19:55:00,29.0,-5.0,-100.00,West,268,2.0,4.0,22,-99.99,,,-99.99,,2013-02-19 02:55:00,
2013-02-18 20:00:00,27.0,-1.0,-100.00,WSW,245,1.0,3.0,29,-99.99,,,0.00,,2013-02-19 03:00:00,
2013-02-18 20:55:00,27.0,-1.0,-100.00,WSW,245,1.0,3.0,29,-99.99,,,0.00,,2013-02-19 03:55:00,
2013-02-18 22:00:00,22.0,2.0,-100.00,SE,144,0.0,2.0,40,-99.99,,,0.00,,2013-02-19 05:00:00,
2013-02-18 22:52:00,22.0,2.0,-100.00,SE,144,0.0,2.0,40,-99.99,,,0.00,,2013-02-19 05:52:00,
2013-02-18 23:00:00,20.0,2.0,-100.00,SSE,167,1.0,3.0,44,-99.99,,,-99.99,,2013-02-19 06:00:00,
2013-02-18 23:52:00,20.0,2.0,-100.00,SSE,167,1.0,3.0,44,-99.99,,,-99.99,,2013-02-19 06:52:00,